Find Kosmos-2571 subsat

NORAD ID: 58428 Int'l Des: 2023-165 Owner: VVKOV Country: RU operational
LEOCIRCULAR

Live Position

Loading 3D Globe...

About Kosmos-2571 subsat

Description loading...

Upcoming Passes

Passes for default location (London). Set your location on the main map for personalized predictions.

Altitude History

Loading altitude history...

Two-Line Element Set

1 58428U 23165D 26104.86106683 .00000002 00000-0 54688-4 0 9992
2 58428 67.1487 81.2665 0013040 354.7471 5.3475 13.97415623121985
Epoch: Apr 14, 2026 • Age: 7 hours

Current Status

Altitude 906.8 km
Velocity 7.41 km/s
Sub-Earth Point 53.32°N, 145.88°W
Launch Date Oct 27, 2023
Age 2.4 years
Type other

Technical Details

Classification Payload
Mass 10.00 kg
Dry Mass 10.00 kg
Total Mass 10.00 kg
Length 0.30 m
Diameter 0.20 m
Span 0.30 m
Shape Box
Manufacturer TSSKBP/ARSLO
Bus Type Unk
Phase Status In Orbit
Owner/State VVKOV/RU

Most Searched